Change the Weather History Date:

Saturday, July 6, 2013

  Actual Average Record
Temperature  
Mean Temperature 76 °F 68 °F  
Max Temperature 85 °F 79 °F 94 °F (1988)
Min Temperature 67 °F 58 °F 45 °F (2001)
Degree Days  
Heating Degree Days 0 1  
Month to date heating degree days 0 6  
Since 1 June heating degree days 38 91  
Since 1 July heating degree days 0 6  
Cooling Degree Days 11 4  
Month to date cooling degree days 56 24  
Year to date cooling degree days 207 118  
Since 1 June cooling degree days 148 95  
Growing Degree Days 25 (Base 50)    
Moisture  
Dew Point 67 °F    
Average Humidity 72    
Maximum Humidity 93    
Minimum Humidity 51    
Precipitation  
Precipitation 0.00 in 0.15 in 0.98 in (1985)
Month to date precipitation 1.66 0.85  
Sea Level Pressure  
Sea Level Pressure 30.16 in    
Wind  
Wind Speed 4 mph (SW)    
Max Wind Speed 9 mph    
Max Gust Speed 16 mph    
Visibility 10 miles    
Events Thunderstorm    
T = Trace of Precipitation, MM = Missing Value Source: NWS Daily Summary

Daily Weather History Graph

Daily Weather History Graph

Search for Another Location

Airport or City:

Trip Planner

Search our weather history database for the weather conditions in past years. The results will help you decide how hot, cold, wet, or windy it might be!

Date:

Astronomy

Jul. 06, 2013 Rise Set
Actual Time 5:49 AM EDT 8:50 PM EDT
Civil Twilight 5:16 AM EDT 9:24 PM EDT
Nautical Twilight 4:33 AM EDT 10:06 PM EDT
Astronomical Twilight 3:43 AM EDT 10:56 PM EDT
Moon 4:34 AM EDT (7/6) 7:30 PM EDT (7/6)
Length of Visible Light 16h 08m
Length of Day
15h 01m
Waning Crescent, 2% of the Moon is Illuminated
Jul 6
Waning Crescent
Jul 8
New
Jul 15
First Quarter
Jul 22
Full
Jul 29
Last Quarter

Hourly Weather History & Observations

Time (EDT) Temp. Heat Index Dew Point Humidity Pressure Visibility Wind Dir Wind Speed Gust Speed Precip Events Conditions
12:56 AM 69.1 °F - 64.9 °F 87% 30.16 in 10.0 mi SW 3.5 mph - N/A   Clear
1:56 AM 69.1 °F - 64.9 °F 87% 30.16 in 10.0 mi Calm Calm - N/A   Clear
2:56 AM 70.0 °F - 66.0 °F 87% 30.16 in 10.0 mi SSW 4.6 mph - N/A   Mostly Cloudy
3:56 AM 70.0 °F - 66.0 °F 87% 30.16 in 10.0 mi West 4.6 mph - N/A   Partly Cloudy
4:56 AM 68.0 °F - 64.9 °F 90% 30.16 in 10.0 mi Calm Calm - N/A   Clear
5:56 AM 66.9 °F - 64.9 °F 93% 30.17 in 6.0 mi Calm Calm - N/A   Clear
6:56 AM 69.1 °F - 66.0 °F 90% 30.17 in 8.0 mi Calm Calm - N/A   Clear
7:56 AM 72.0 °F - 68.0 °F 87% 30.18 in 10.0 mi WSW 5.8 mph - N/A   Clear
8:49 AM 73.4 °F - 68.0 °F 83% 30.23 in 10.0 mi SSW 5.8 mph - N/A   Mostly Cloudy
8:56 AM 73.9 °F - 68.0 °F 82% 30.19 in 10.0 mi SW 4.6 mph - N/A   Mostly Cloudy
9:56 AM 75.0 °F - 66.9 °F 76% 30.19 in 10.0 mi SW 6.9 mph - N/A   Mostly Cloudy
10:04 AM 75.2 °F - 66.2 °F 73% 30.22 in 10.0 mi SSW 6.9 mph - N/A   Mostly Cloudy
10:17 AM 75.2 °F - 66.2 °F 73% 30.22 in 10.0 mi SW 6.9 mph - N/A   Overcast
10:56 AM 78.1 °F - 68.0 °F 71% 30.18 in 10.0 mi SW 5.8 mph - N/A   Mostly Cloudy
11:30 AM 78.8 °F - 66.2 °F 65% 30.22 in 10.0 mi WSW 8.1 mph - N/A   Mostly Cloudy
11:46 AM 78.8 °F - 66.2 °F 65% 30.22 in 10.0 mi WSW 6.9 mph - N/A   Mostly Cloudy
11:56 AM 79.0 °F - 68.0 °F 69% 30.18 in 10.0 mi SW 9.2 mph - N/A   Mostly Cloudy
12:56 PM 81.0 °F 83.3 °F 66.9 °F 62% 30.16 in 10.0 mi SW 9.2 mph - N/A   Scattered Clouds
1:06 PM 82.4 °F 85.4 °F 68.0 °F 62% 30.20 in 10.0 mi SW 8.1 mph - N/A   Mostly Cloudy
1:16 PM 82.4 °F 85.4 °F 68.0 °F 62% 30.20 in 10.0 mi SW 9.2 mph 16.1 mph N/A   Mostly Cloudy
1:56 PM 82.0 °F 84.9 °F 68.0 °F 62% 30.14 in 10.0 mi SW 5.8 mph - N/A   Scattered Clouds
2:56 PM 84.0 °F 86.5 °F 66.9 °F 56% 30.12 in 10.0 mi SW 9.2 mph - N/A   Partly Cloudy
3:56 PM 82.9 °F 85.4 °F 66.9 °F 58% 30.11 in 10.0 mi WSW 4.6 mph - N/A   Mostly Cloudy
4:56 PM 84.0 °F 86.5 °F 66.9 °F 56% 30.09 in 10.0 mi SW 4.6 mph - N/A   Partly Cloudy
5:56 PM 84.0 °F 85.8 °F 64.9 °F 53% 30.07 in 10.0 mi WSW 5.8 mph - N/A   Clear
6:56 PM 84.0 °F 86.3 °F 66.0 °F 55% 30.06 in 10.0 mi SSW 4.6 mph - N/A   Clear
7:56 PM 80.1 °F 82.3 °F 66.9 °F 64% 30.06 in 10.0 mi Calm Calm - N/A   Clear
8:56 PM 79.0 °F - 66.9 °F 66% 30.06 in 10.0 mi Calm Calm - N/A   Mostly Cloudy
9:18 PM 75.2 °F - 69.8 °F 83% 30.12 in 10.0 mi East 3.5 mph - N/A Thunderstorm Clear